PKNJT FIMP-WADD

Flight info

Callsign PKNJT
Flight time N/A
Altitude 37000
Route OKROS1A OKROS UT201 KADEM G200 XMX DCT ESLOG DCT PROGO T1 KIDUL
Aircraft A346/H-SDE2E3FGHIJ3J4J5M1RWXY/LB1D1

Departure

Time 2026-05-06 03:49
Airport Sir Seewoosagur Ramgoolam International Airport (FIMP)

Arrival

Time N/A
Airport Denpasar I Gusti Ngurah Rai International Airport (WADD)
Time Latitude Longitude Altitude Speed Heading
2026-05-06 03:21 -20.43086 57.67710 173 ft 0 kts 196°
2026-05-06 03:38 -20.43084 57.67710 173 ft 2 kts 196°
2026-05-06 03:38 -20.43073 57.67715 173 ft 4 kts 203°
2026-05-06 03:39 -20.43050 57.67728 173 ft 4 kts 219°
2026-05-06 03:39 -20.43034 57.67747 173 ft 4 kts 239°
2026-05-06 03:39 -20.43023 57.67770 173 ft 4 kts 255°
2026-05-06 03:39 -20.43022 57.67793 172 ft 4 kts 285°
2026-05-06 03:40 -20.43032 57.67814 171 ft 4 kts 308°
2026-05-06 03:40 -20.43049 57.67835 171 ft 4 kts 309°
2026-05-06 03:40 -20.43060 57.67852 170 ft 1 kts 297°
2026-05-06 03:40 -20.43062 57.67855 170 ft 0 kts 297°
2026-05-06 03:44 -20.43060 57.67851 170 ft 1 kts 297°
2026-05-06 03:45 -20.43055 57.67842 171 ft 2 kts 298°
2026-05-06 03:45 -20.43047 57.67825 171 ft 3 kts 298°
2026-05-06 03:45 -20.43032 57.67795 172 ft 6 kts 298°
2026-05-06 03:45 -20.43011 57.67752 173 ft 7 kts 298°
2026-05-06 03:46 -20.42980 57.67689 175 ft 13 kts 298°
2026-05-06 03:46 -20.42928 57.67585 179 ft 19 kts 298°
2026-05-06 03:46 -20.42822 57.67506 182 ft 22 kts 351°
2026-05-06 03:46 -20.42652 57.67474 187 ft 27 kts 346°
2026-05-06 03:47 -20.42515 57.67321 208 ft 31 kts 292°
2026-05-06 03:47 -20.42418 57.67102 207 ft 35 kts 297°
2026-05-06 03:47 -20.42327 57.66924 209 ft 23 kts 274°
2026-05-06 03:47 -20.42404 57.66813 210 ft 23 kts 211°
2026-05-06 03:48 -20.42429 57.66733 213 ft 13 kts 345°
2026-05-06 03:48 -20.42334 57.66784 213 ft 19 kts 51°
2026-05-06 03:48 -20.42339 57.66925 216 ft 24 kts 118°
2026-05-06 03:48 -20.42490 57.67247 196 ft 78 kts 116°
2026-05-06 03:49 -20.42826 57.67938 171 ft 131 kts 117°
2026-05-06 03:49 -20.43324 57.68983 137 ft 175 kts 116°
2026-05-06 03:49 -20.43909 57.70200 474 ft 182 kts 116°
2026-05-06 03:49 -20.44489 57.71376 1060 ft 176 kts 116°
2026-05-06 03:50 -20.45053 57.72523 1643 ft 172 kts 117°
2026-05-06 03:50 -20.45601 57.73632 2145 ft 171 kts 117°
2026-05-06 03:50 -20.46164 57.74756 2599 ft 172 kts 116°
2026-05-06 03:50 -20.46726 57.75915 2933 ft 180 kts 111°
2026-05-06 03:51 -20.47051 57.77219 3213 ft 185 kts 96°
2026-05-06 03:51 -20.47165 57.78622 3479 ft 196 kts 95°
2026-05-06 03:51 -20.47323 57.80118 3674 ft 209 kts 96°
2026-05-06 03:51 -20.47532 57.81696 3883 ft 220 kts 99°
2026-05-06 03:52 -20.47804 57.83348 4122 ft 232 kts 99°
2026-05-06 03:52 -20.48120 57.85092 4389 ft 245 kts 100°
2026-05-06 03:52 -20.48468 57.86923 4643 ft 258 kts 101°
2026-05-06 03:52 -20.48840 57.88818 5050 ft 263 kts 101°
2026-05-06 03:53 -20.49225 57.90743 5540 ft 266 kts 101°
2026-05-06 03:53 -20.49614 57.92665 6140 ft 264 kts 101°
2026-05-06 03:53 -20.50006 57.94589 6650 ft 267 kts 101°
2026-05-06 03:53 -20.50402 57.96548 7143 ft 273 kts 101°
2026-05-06 03:54 -20.50807 57.98545 7796 ft 277 kts 101°
2026-05-06 03:54 -20.51079 57.99883 8203 ft 280 kts 101°
2026-05-06 03:54 -20.51496 58.01931 8816 ft 284 kts 101°
2026-05-06 03:54 -20.52060 58.04694 9607 ft 290 kts 101°
2026-05-06 03:55 -20.52494 58.06835 10152 ft 295 kts 102°
2026-05-06 03:55 -20.52790 58.08299 10454 ft 301 kts 102°
2026-05-06 03:55 -20.53242 58.10534 10714 ft 316 kts 102°
2026-05-06 03:55 -20.53712 58.12847 10961 ft 330 kts 102°
2026-05-06 03:56 -20.54210 58.15306 11202 ft 344 kts 102°
2026-05-06 03:56 -20.54726 58.17854 11444 ft 358 kts 102°
2026-05-06 03:56 -20.55264 58.20512 11673 ft 372 kts 102°
2026-05-06 03:56 -20.55819 58.23253 11952 ft 383 kts 102°
2026-05-06 03:57 -20.56386 58.26060 12455 ft 387 kts 102°
2026-05-06 03:57 -20.56831 58.28903 13041 ft 389 kts 97°
2026-05-06 03:57 -20.57021 58.31800 13636 ft 391 kts 92°
2026-05-06 03:57 -20.56960 58.34715 14174 ft 393 kts 88°
2026-05-06 03:58 -20.56806 58.37642 14605 ft 397 kts 88°
2026-05-06 03:58 -20.56636 58.40605 15027 ft 401 kts 88°
2026-05-06 03:58 -20.56469 58.43589 15480 ft 404 kts 87°
2026-05-06 03:58 -20.56299 58.46606 15896 ft 408 kts 88°
2026-05-06 03:59 -20.56129 58.49644 16351 ft 411 kts 88°
2026-05-06 03:59 -20.55959 58.52709 16786 ft 415 kts 88°
2026-05-06 03:59 -20.55783 58.55790 17210 ft 418 kts 88°
2026-05-06 03:59 -20.55610 58.58906 17633 ft 422 kts 88°
2026-05-06 04:00 -20.55437 58.62045 18044 ft 425 kts 88°
2026-05-06 04:00 -20.55260 58.65216 18438 ft 429 kts 88°
2026-05-06 04:00 -20.55084 58.68408 18799 ft 432 kts 88°
2026-05-06 04:00 -20.54901 58.71645 19195 ft 434 kts 88°
2026-05-06 04:01 -20.54720 58.74882 19610 ft 436 kts 87°
2026-05-06 04:01 -20.54535 58.78124 20014 ft 438 kts 88°
2026-05-06 04:01 -20.54352 58.81338 20400 ft 440 kts 87°
2026-05-06 04:01 -20.54164 58.84655 20831 ft 442 kts 87°
2026-05-06 04:02 -20.53976 58.87948 21224 ft 444 kts 87°
2026-05-06 04:02 -20.53792 58.91210 21624 ft 447 kts 87°
2026-05-06 04:02 -20.53601 58.94534 22020 ft 449 kts 87°
2026-05-06 04:02 -20.53409 58.97865 22421 ft 451 kts 86°
2026-05-06 04:03 -20.53213 59.01229 22817 ft 454 kts 86°
2026-05-06 04:03 -20.53017 59.04596 23213 ft 456 kts 86°
2026-05-06 04:03 -20.52819 59.07982 23581 ft 459 kts 86°
2026-05-06 04:03 -20.52619 59.11399 23902 ft 461 kts 86°
2026-05-06 04:04 -20.52416 59.14828 24217 ft 464 kts 86°
2026-05-06 04:04 -20.52212 59.18273 24532 ft 466 kts 86°
2026-05-06 04:04 -20.52007 59.21737 24849 ft 468 kts 86°
2026-05-06 04:04 -20.51800 59.25216 25172 ft 470 kts 86°
2026-05-06 04:05 -20.51592 59.28716 25497 ft 472 kts 86°
2026-05-06 04:05 -20.51381 59.32241 25841 ft 474 kts 86°
2026-05-06 04:05 -20.51170 59.35768 26177 ft 475 kts 86°
2026-05-06 04:05 -20.50959 59.39291 26517 ft 476 kts 86°
2026-05-06 04:06 -20.50748 59.42821 26859 ft 476 kts 86°
2026-05-06 04:06 -20.50538 59.46306 27199 ft 476 kts 86°
2026-05-06 04:06 -20.50323 59.49882 27550 ft 476 kts 86°
2026-05-06 04:06 -20.50114 59.53362 27899 ft 476 kts 86°
2026-05-06 04:07 -20.49900 59.56895 28246 ft 476 kts 86°
2026-05-06 04:07 -20.49687 59.60425 28593 ft 476 kts 86°
2026-05-06 04:07 -20.49473 59.63959 28923 ft 476 kts 86°
2026-05-06 04:07 -20.49260 59.67485 29228 ft 477 kts 86°
2026-05-06 04:08 -20.49039 59.71052 29437 ft 481 kts 86°
2026-05-06 04:08 -20.48805 59.74649 29566 ft 487 kts 86°
2026-05-06 04:08 -20.48573 59.78276 29720 ft 492 kts 86°
2026-05-06 04:08 -20.48357 59.81931 29948 ft 495 kts 86°
2026-05-06 04:09 -20.48147 59.85616 30266 ft 495 kts 86°
2026-05-06 04:09 -20.47940 59.89279 30622 ft 494 kts 86°
2026-05-06 04:09 -20.47730 59.92952 30932 ft 494 kts 86°
2026-05-06 04:09 -20.47520 59.96626 31260 ft 493 kts 86°
2026-05-06 04:10 -20.47309 60.00285 31549 ft 494 kts 86°
2026-05-06 04:10 -20.47097 60.03935 31873 ft 493 kts 86°
2026-05-06 04:10 -20.46887 60.07550 32159 ft 493 kts 86°
2026-05-06 04:10 -20.46672 60.11228 32463 ft 493 kts 86°
2026-05-06 04:11 -20.46458 60.14882 32752 ft 493 kts 86°
2026-05-06 04:11 -20.46243 60.18535 33051 ft 492 kts 86°
2026-05-06 04:11 -20.46028 60.22185 33339 ft 492 kts 86°
2026-05-06 04:11 -20.45815 60.25777 33603 ft 492 kts 86°
2026-05-06 04:12 -20.45598 60.29417 33900 ft 492 kts 86°
2026-05-06 04:12 -20.45309 60.33060 34126 ft 492 kts 84°
2026-05-06 04:12 -20.44938 60.36689 34351 ft 491 kts 83°
2026-05-06 04:12 -20.44554 60.40317 34591 ft 491 kts 83°
2026-05-06 04:13 -20.44169 60.43930 34855 ft 489 kts 83°
2026-05-06 04:13 -20.43781 60.47587 35096 ft 489 kts 83°
2026-05-06 04:13 -20.43403 60.51144 35326 ft 488 kts 83°
2026-05-06 04:13 -20.43021 60.54746 35488 ft 489 kts 83°
2026-05-06 04:14 -20.42633 60.58401 35661 ft 489 kts 83°
2026-05-06 04:14 -20.42249 60.62017 35815 ft 491 kts 83°
2026-05-06 04:14 -20.41870 60.65583 35990 ft 491 kts 83°
2026-05-06 04:14 -20.41478 60.69261 36155 ft 491 kts 83°
2026-05-06 04:15 -20.41090 60.72899 36317 ft 491 kts 83°
2026-05-06 04:15 -20.40709 60.76481 36415 ft 493 kts 83°
2026-05-06 04:15 -20.39924 60.83788 36642 ft 496 kts 83°
2026-05-06 04:16 -20.39531 60.87437 36828 ft 496 kts 83°
2026-05-06 04:16 -20.39137 60.91093 36987 ft 496 kts 83°
2026-05-06 04:16 -20.38345 60.98419 37067 ft 497 kts 83°
2026-05-06 04:17 -20.37549 61.05757 37073 ft 498 kts 83°
2026-05-06 04:17 -20.36750 61.13086 37073 ft 497 kts 83°
2026-05-06 04:18 -20.35949 61.20409 37070 ft 497 kts 83°
2026-05-06 04:18 -20.35144 61.27740 37072 ft 498 kts 83°
2026-05-06 04:19 -20.34334 61.35091 37069 ft 497 kts 83°
2026-05-06 04:19 -20.33523 61.42420 37069 ft 497 kts 83°
2026-05-06 04:20 -20.32709 61.49748 37071 ft 498 kts 83°
2026-05-06 04:20 -20.31895 61.57043 37071 ft 498 kts 83°
2026-05-06 04:21 -20.31075 61.64371 37072 ft 497 kts 83°
2026-05-06 04:21 -20.30251 61.71698 37070 ft 497 kts 83°
2026-05-06 04:22 -20.29424 61.79046 37073 ft 499 kts 83°
2026-05-06 04:23 -20.28178 61.90036 37073 ft 499 kts 83°
2026-05-06 04:23 -20.27338 61.97397 37066 ft 499 kts 83°
2026-05-06 04:24 -20.26500 62.04737 37070 ft 499 kts 83°
2026-05-06 04:24 -20.25657 62.12089 37070 ft 499 kts 83°
2026-05-06 04:25 -20.24811 62.19438 37073 ft 499 kts 83°
2026-05-06 04:25 -20.23962 62.26788 37074 ft 499 kts 83°
2026-05-06 04:26 -20.23110 62.34133 37072 ft 499 kts 83°
2026-05-06 04:26 -20.22255 62.41476 37072 ft 499 kts 83°
2026-05-06 04:27 -20.21396 62.48822 37069 ft 499 kts 83°
2026-05-06 04:27 -20.20535 62.56162 37069 ft 499 kts 83°
2026-05-06 04:28 -20.19677 62.63453 37074 ft 500 kts 83°
2026-05-06 04:28 -20.18808 62.70805 37073 ft 500 kts 83°
2026-05-06 04:29 -20.17936 62.78159 37063 ft 500 kts 83°
2026-05-06 04:29 -20.17060 62.85527 37069 ft 501 kts 82°
2026-05-06 04:30 -20.16180 62.92887 37073 ft 501 kts 82°
2026-05-06 04:30 -20.15297 63.00256 37073 ft 501 kts 82°
2026-05-06 04:31 -20.14410 63.07624 37075 ft 501 kts 82°
2026-05-06 04:31 -20.13521 63.14994 37073 ft 501 kts 82°
2026-05-06 04:32 -20.12627 63.22369 37073 ft 501 kts 82°
2026-05-06 04:32 -20.11737 63.29686 37073 ft 501 kts 82°
2026-05-06 04:33 -20.10839 63.37045 37075 ft 501 kts 82°
2026-05-06 04:33 -20.09937 63.44415 37078 ft 501 kts 82°
2026-05-06 04:34 -20.09033 63.51770 37075 ft 501 kts 82°
2026-05-06 04:34 -20.08126 63.59129 37076 ft 500 kts 82°
2026-05-06 04:35 -20.07215 63.66487 37076 ft 500 kts 82°
2026-05-06 04:35 -20.06303 63.73838 37076 ft 500 kts 82°
2026-05-06 04:36 -20.05387 63.81185 37073 ft 500 kts 82°
2026-05-06 04:36 -20.04468 63.88549 37068 ft 503 kts 82°
2026-05-06 04:37 -20.03539 63.95950 37074 ft 504 kts 82°
2026-05-06 04:37 -20.02608 64.03347 37075 ft 504 kts 82°
2026-05-06 04:38 -20.01679 64.10698 37075 ft 504 kts 82°
2026-05-06 04:38 -20.00741 64.18097 37073 ft 504 kts 82°
2026-05-06 04:39 -19.99799 64.25508 37072 ft 504 kts 82°
2026-05-06 04:39 -19.99015 64.31651 37073 ft 504 kts 82°
2026-05-06 04:40 -19.98069 64.39047 37069 ft 504 kts 82°
2026-05-06 04:40 -19.97120 64.46442 37070 ft 504 kts 82°
2026-05-06 04:41 -19.96167 64.53841 37069 ft 504 kts 82°
2026-05-06 04:41 -19.95213 64.61226 37073 ft 504 kts 82°
2026-05-06 04:42 -19.94261 64.68568 37073 ft 504 kts 82°
2026-05-06 04:42 -19.93298 64.75969 37073 ft 504 kts 82°
2026-05-06 04:43 -19.92335 64.83355 37073 ft 504 kts 82°
2026-05-06 04:43 -19.91369 64.90742 37073 ft 504 kts 82°
2026-05-06 04:44 -19.90398 64.98146 37071 ft 507 kts 82°
2026-05-06 04:44 -19.89417 65.05592 37069 ft 508 kts 82°
2026-05-06 04:45 -19.88437 65.13045 37072 ft 508 kts 82°
2026-05-06 04:45 -19.87462 65.20438 37074 ft 508 kts 81°
2026-05-06 04:46 -19.86479 65.27878 37072 ft 508 kts 81°
2026-05-06 04:46 -19.85493 65.35313 37074 ft 507 kts 81°
2026-05-06 04:47 -19.84503 65.42754 37068 ft 507 kts 81°
2026-05-06 04:47 -19.83511 65.50190 37073 ft 507 kts 81°
2026-05-06 04:48 -19.82515 65.57625 37076 ft 507 kts 81°
2026-05-06 04:48 -19.81518 65.65054 37074 ft 508 kts 81°
2026-05-06 04:49 -19.80514 65.72500 37074 ft 508 kts 81°
2026-05-06 04:49 -19.79510 65.79928 37075 ft 508 kts 81°
2026-05-06 04:50 -19.78500 65.87372 37072 ft 508 kts 81°
2026-05-06 04:50 -19.77488 65.94809 37077 ft 508 kts 81°
2026-05-06 04:51 -19.76474 66.02241 37073 ft 508 kts 81°
2026-05-06 04:51 -19.75457 66.09672 37073 ft 508 kts 81°
2026-05-06 04:52 -19.74441 66.17067 37073 ft 508 kts 81°
2026-05-06 04:52 -19.73418 66.24495 37073 ft 508 kts 81°
2026-05-06 04:53 -19.72390 66.31936 37070 ft 508 kts 81°
2026-05-06 04:53 -19.71358 66.39373 37072 ft 508 kts 81°
2026-05-06 04:54 -19.70324 66.46813 37074 ft 508 kts 81°
2026-05-06 04:54 -19.69286 66.54250 37073 ft 508 kts 81°
2026-05-06 04:55 -19.68245 66.61692 37078 ft 508 kts 81°
2026-05-06 04:55 -19.67203 66.69116 37076 ft 508 kts 81°
2026-05-06 04:56 -19.66158 66.76536 37076 ft 508 kts 81°
2026-05-06 04:56 -19.65110 66.83960 37076 ft 508 kts 81°
2026-05-06 04:57 -19.64066 66.91332 37071 ft 508 kts 81°
2026-05-06 04:57 -19.63013 66.98749 37070 ft 508 kts 81°
2026-05-06 04:58 -19.61953 67.06187 37073 ft 508 kts 81°
2026-05-06 04:58 -19.60890 67.13620 37052 ft 509 kts 81°
2026-05-06 04:59 -19.59821 67.21092 37067 ft 514 kts 80°
2026-05-06 04:59 -19.58740 67.28613 37072 ft 515 kts 80°
2026-05-06 05:00 -19.57653 67.36136 37069 ft 515 kts 80°
2026-05-06 05:00 -19.56564 67.43662 37071 ft 515 kts 80°
2026-05-06 05:01 -19.55473 67.51184 37070 ft 515 kts 80°
2026-05-06 05:01 -19.54379 67.58705 37068 ft 516 kts 80°
2026-05-06 05:02 -19.53278 67.66250 37067 ft 516 kts 80°
2026-05-06 05:02 -19.52182 67.73729 37067 ft 516 kts 80°
2026-05-06 05:03 -19.51069 67.81307 37067 ft 516 kts 79°
2026-05-06 05:03 -19.49960 67.88838 37067 ft 516 kts 79°
2026-05-06 05:04 -19.48853 67.96336 37064 ft 516 kts 79°
2026-05-06 05:04 -19.47735 68.03882 37064 ft 516 kts 79°
2026-05-06 05:05 -19.46617 68.11412 37062 ft 516 kts 79°
2026-05-06 05:05 -19.45494 68.18945 37066 ft 516 kts 79°
2026-05-06 05:06 -19.44371 68.26468 37062 ft 516 kts 79°
2026-05-06 05:06 -19.43249 68.33968 37056 ft 520 kts 79°
2026-05-06 05:07 -19.42107 68.41556 37059 ft 520 kts 79°
2026-05-06 05:07 -19.40964 68.49137 37057 ft 521 kts 79°
2026-05-06 05:08 -19.39818 68.56721 37059 ft 521 kts 79°
2026-05-06 05:08 -19.38665 68.64327 37056 ft 521 kts 79°
2026-05-06 05:09 -19.37510 68.71922 37056 ft 521 kts 79°
2026-05-06 05:09 -19.36351 68.79517 37052 ft 521 kts 79°
2026-05-06 05:10 -19.35190 68.87111 37058 ft 521 kts 79°
2026-05-06 05:10 -19.34030 68.94682 37055 ft 522 kts 78°
2026-05-06 05:11 -19.32863 69.02270 37052 ft 522 kts 78°
2026-05-06 05:11 -19.31687 69.09889 37052 ft 522 kts 78°
2026-05-06 05:12 -19.30513 69.17482 37052 ft 522 kts 78°
2026-05-06 05:12 -19.29336 69.25084 37052 ft 523 kts 78°
2026-05-06 05:13 -19.28152 69.32696 37050 ft 523 kts 78°
2026-05-06 05:13 -19.26963 69.40310 37051 ft 523 kts 78°
2026-05-06 05:14 -19.25773 69.47929 37039 ft 525 kts 78°
2026-05-06 05:14 -19.24574 69.55573 37048 ft 526 kts 78°
2026-05-06 05:15 -19.23371 69.63225 37041 ft 526 kts 78°
2026-05-06 05:15 -19.22170 69.70836 37048 ft 526 kts 78°
2026-05-06 05:16 -19.20959 69.78494 37058 ft 526 kts 78°
2026-05-06 05:16 -19.19746 69.86147 37056 ft 526 kts 78°
2026-05-06 05:17 -19.18532 69.93803 37045 ft 527 kts 77°
2026-05-06 05:17 -19.17309 70.01459 37041 ft 527 kts 77°
2026-05-06 05:18 -19.16080 70.09123 37051 ft 527 kts 77°
2026-05-06 05:18 -19.14857 70.16736 37056 ft 527 kts 77°
2026-05-06 05:19 -19.13625 70.24394 37048 ft 527 kts 77°
2026-05-06 05:19 -19.12389 70.32053 37046 ft 527 kts 77°
2026-05-06 05:20 -19.11146 70.39729 37049 ft 527 kts 77°
2026-05-06 05:20 -19.09902 70.47395 37040 ft 527 kts 77°
2026-05-06 05:21 -19.08658 70.55049 37048 ft 527 kts 77°
2026-05-06 05:21 -19.07410 70.62709 37037 ft 528 kts 77°
2026-05-06 05:22 -19.06157 70.70367 37043 ft 528 kts 77°
2026-05-06 05:22 -19.05107 70.76770 37047 ft 528 kts 77°
2026-05-06 05:23 -19.03849 70.84421 37032 ft 528 kts 77°
2026-05-06 05:23 -19.01953 70.95924 37037 ft 528 kts 77°
2026-05-06 05:24 -19.00685 71.03583 37040 ft 528 kts 77°
2026-05-06 05:24 -18.99416 71.11233 37041 ft 528 kts 77°
2026-05-06 05:25 -18.98151 71.18838 37035 ft 528 kts 77°
2026-05-06 05:25 -18.96874 71.26495 37044 ft 528 kts 77°
2026-05-06 05:26 -18.95596 71.34144 37036 ft 528 kts 77°
2026-05-06 05:26 -18.94313 71.41795 37040 ft 528 kts 77°
2026-05-06 05:27 -18.93027 71.49446 37045 ft 528 kts 77°
2026-05-06 05:27 -18.91739 71.57095 37045 ft 528 kts 76°
2026-05-06 05:28 -18.90457 71.64690 37042 ft 528 kts 76°
2026-05-06 05:28 -18.89158 71.72351 37038 ft 528 kts 76°
2026-05-06 05:29 -18.87853 71.80032 37020 ft 528 kts 76°
2026-05-06 05:29 -18.86564 71.87602 37037 ft 525 kts 76°
2026-05-06 05:30 -18.85265 71.95218 37042 ft 525 kts 76°
2026-05-06 05:30 -18.83966 72.02815 37042 ft 525 kts 76°
2026-05-06 05:31 -18.82661 72.10415 37043 ft 525 kts 76°
2026-05-06 05:31 -18.81356 72.18008 37040 ft 525 kts 76°
2026-05-06 05:32 -18.80048 72.25596 37040 ft 525 kts 76°
2026-05-06 05:32 -18.78746 72.33135 37038 ft 525 kts 76°
2026-05-06 05:33 -18.77428 72.40738 37031 ft 525 kts 76°
2026-05-06 05:33 -18.76110 72.48325 37036 ft 525 kts 76°
2026-05-06 05:34 -18.74791 72.55907 37039 ft 525 kts 76°
2026-05-06 05:34 -18.73466 72.63504 37035 ft 525 kts 76°
2026-05-06 05:35 -18.72138 72.71092 37039 ft 525 kts 76°
2026-05-06 05:35 -18.70806 72.78687 37032 ft 525 kts 76°
2026-05-06 05:36 -18.69478 72.86244 37038 ft 525 kts 76°
2026-05-06 05:36 -18.68133 72.93881 37033 ft 525 kts 76°
2026-05-06 05:37 -18.66735 73.01399 37010 ft 524 kts 73°
2026-05-06 05:37 -18.64673 73.08733 37025 ft 519 kts 65°
2026-05-06 05:38 -18.61876 73.15726 37033 ft 515 kts 61°
2026-05-06 05:38 -18.58892 73.22601 37030 ft 515 kts 60°
2026-05-06 05:39 -18.55935 73.29428 37030 ft 515 kts 61°
2026-05-06 05:39 -18.52978 73.36283 37030 ft 515 kts 61°
2026-05-06 05:40 -18.50015 73.43156 37026 ft 515 kts 61°
2026-05-06 05:40 -18.47050 73.50028 37026 ft 515 kts 60°
2026-05-06 05:41 -18.44075 73.56916 37026 ft 515 kts 60°
2026-05-06 05:41 -18.41121 73.63746 37028 ft 515 kts 60°
2026-05-06 05:42 -18.38141 73.70625 37017 ft 514 kts 61°
2026-05-06 05:42 -18.35163 73.77497 37023 ft 513 kts 61°
2026-05-06 05:43 -18.32192 73.84345 37022 ft 513 kts 61°
2026-05-06 05:43 -18.29222 73.91182 37023 ft 513 kts 61°
2026-05-06 05:44 -18.28424 73.93017 37021 ft 513 kts 61°
2026-05-06 07:56 -18.25438 73.99880 36990 ft 513 kts 61°
2026-05-06 07:57 -18.21860 74.08094 36976 ft 513 kts 60°
2026-05-06 07:57 -18.15832 74.21908 36976 ft 513 kts 60°
2026-05-06 07:58 -18.09737 74.35841 36964 ft 511 kts 60°
2026-05-06 07:58 -18.03819 74.49346 36969 ft 509 kts 60°
2026-05-06 07:59 -17.97824 74.62984 36974 ft 509 kts 60°
2026-05-06 07:59 -17.91839 74.76573 36965 ft 509 kts 60°
2026-05-06 08:00 -17.85851 74.90141 36971 ft 509 kts 60°
2026-05-06 08:00 -17.80695 75.04105 36960 ft 513 kts 71°
2026-05-06 08:01 -17.77600 75.19272 36961 ft 514 kts 74°
2026-05-06 08:01 -17.74679 75.33922 36958 ft 514 kts 74°
2026-05-06 08:02 -17.71697 75.48702 36959 ft 514 kts 74°
2026-05-06 08:02 -17.68713 75.63415 36957 ft 514 kts 74°
2026-05-06 08:03 -17.65714 75.78146 36956 ft 514 kts 74°
2026-05-06 08:03 -17.62697 75.92911 36956 ft 515 kts 73°
2026-05-06 08:04 -17.59675 76.07636 36955 ft 515 kts 73°
2026-05-06 08:04 -17.56645 76.22342 36953 ft 516 kts 73°
2026-05-06 08:05 -17.53596 76.37091 36947 ft 516 kts 73°
2026-05-06 08:05 -17.50560 76.51711 36947 ft 516 kts 73°
2026-05-06 08:06 -17.47492 76.66435 36947 ft 516 kts 73°
2026-05-06 08:06 -17.44378 76.81323 36947 ft 516 kts 73°
2026-05-06 08:07 -17.41286 76.96046 36942 ft 516 kts 73°
2026-05-06 08:07 -17.38185 77.10752 36941 ft 516 kts 73°
2026-05-06 08:08 -17.35059 77.25525 36946 ft 517 kts 73°
2026-05-06 08:08 -17.31905 77.40362 36937 ft 515 kts 73°
2026-05-06 08:09 -17.28797 77.54945 36933 ft 515 kts 73°
2026-05-06 08:09 -17.25660 77.69596 36936 ft 515 kts 73°
2026-05-06 08:10 -17.22511 77.84255 36934 ft 515 kts 73°
2026-05-06 08:10 -17.19357 77.98880 36931 ft 515 kts 73°
2026-05-06 08:11 -17.16185 78.13535 36935 ft 515 kts 73°
2026-05-06 08:11 -17.13004 78.28184 36935 ft 515 kts 73°
2026-05-06 08:12 -17.09804 78.42862 36927 ft 515 kts 73°
2026-05-06 08:12 -17.06589 78.57552 36918 ft 514 kts 73°
2026-05-06 08:13 -17.03394 78.72110 36928 ft 513 kts 73°
2026-05-06 08:13 -17.00176 78.86704 36926 ft 514 kts 73°
2026-05-06 08:14 -16.96947 79.01303 36927 ft 514 kts 73°
2026-05-06 08:14 -16.93711 79.15877 36927 ft 514 kts 73°
2026-05-06 08:15 -16.90443 79.30552 36923 ft 514 kts 73°
2026-05-06 08:15 -16.87184 79.45127 36927 ft 514 kts 73°
2026-05-06 08:16 -16.83896 79.59788 36922 ft 515 kts 73°
2026-05-06 08:16 -16.80614 79.74374 36927 ft 515 kts 73°
2026-05-06 08:17 -16.77316 79.88964 36914 ft 512 kts 73°
2026-05-06 08:17 -16.74029 80.03479 36918 ft 512 kts 73°
2026-05-06 08:18 -16.70728 80.17958 36928 ft 512 kts 73°
2026-05-06 08:18 -16.67457 80.32273 36918 ft 508 kts 73°
2026-05-06 08:19 -16.64158 80.46666 36910 ft 508 kts 73°
2026-05-06 08:19 -16.60856 80.61029 36917 ft 505 kts 73°
2026-05-06 08:20 -16.57563 80.75296 36917 ft 505 kts 73°
2026-05-06 08:20 -16.54263 80.89550 36916 ft 505 kts 73°
2026-05-06 08:21 -16.50955 81.03815 36911 ft 503 kts 72°
2026-05-06 08:21 -16.47673 81.17897 36918 ft 502 kts 71°
2026-05-06 08:22 -16.44352 81.32084 36915 ft 502 kts 72°
2026-05-06 08:22 -16.41034 81.46229 36913 ft 502 kts 71°
2026-05-06 08:23 -16.37698 81.60410 36916 ft 502 kts 71°
2026-05-06 08:23 -16.34367 81.74515 36911 ft 499 kts 72°
2026-05-06 08:24 -16.31038 81.88583 36913 ft 499 kts 72°
2026-05-06 08:24 -16.27695 82.02661 36913 ft 499 kts 72°
2026-05-06 08:25 -16.24366 82.16634 36913 ft 499 kts 72°
2026-05-06 08:25 -16.21013 82.30664 36912 ft 499 kts 72°
2026-05-06 08:26 -16.17655 82.44680 36912 ft 494 kts 72°
2026-05-06 08:26 -16.14320 82.58544 36912 ft 493 kts 72°
2026-05-06 08:27 -16.10978 82.72402 36912 ft 493 kts 72°
2026-05-06 08:27 -16.07620 82.86286 36907 ft 495 kts 71°
2026-05-06 08:28 -16.04232 83.00245 36906 ft 495 kts 71°
2026-05-06 08:28 -16.00850 83.14142 36908 ft 495 kts 71°
2026-05-06 08:29 -15.97465 83.28001 36912 ft 496 kts 72°
2026-05-06 08:29 -15.94053 83.41946 36907 ft 496 kts 72°
2026-05-06 08:30 -15.90635 83.55864 36905 ft 495 kts 72°
2026-05-06 08:30 -15.87208 83.69775 36906 ft 495 kts 72°
2026-05-06 08:31 -15.83790 83.83624 36909 ft 494 kts 72°
2026-05-06 08:31 -15.80937 83.95148 36905 ft 496 kts 72°
2026-05-06 08:32 -15.77469 84.09111 36908 ft 497 kts 72°
2026-05-06 08:32 -15.74000 84.23043 36909 ft 497 kts 72°
2026-05-06 08:33 -15.70527 84.36965 36905 ft 496 kts 71°
2026-05-06 08:33 -15.67050 84.50833 36908 ft 495 kts 71°
2026-05-06 08:34 -15.61839 84.71571 36906 ft 494 kts 71°
2026-05-06 08:35 -15.58358 84.85373 36912 ft 494 kts 71°
2026-05-06 08:35 -15.54879 84.99133 36904 ft 492 kts 71°
2026-05-06 08:36 -15.51393 85.12854 36905 ft 492 kts 71°
2026-05-06 08:36 -15.47894 85.26595 36905 ft 492 kts 71°
2026-05-06 08:37 -15.44394 85.40310 36905 ft 491 kts 71°
2026-05-06 08:37 -15.40883 85.54030 36902 ft 491 kts 71°
2026-05-06 08:38 -15.37363 85.67743 36907 ft 491 kts 71°
2026-05-06 08:38 -15.33835 85.81454 36904 ft 491 kts 71°
2026-05-06 08:39 -15.30291 85.95188 36903 ft 491 kts 71°
2026-05-06 08:39 -15.26750 86.08873 36903 ft 491 kts 71°
2026-05-06 08:40 -15.23226 86.22467 36901 ft 489 kts 71°
2026-05-06 08:40 -15.19683 86.36083 36904 ft 489 kts 71°
2026-05-06 08:41 -15.16135 86.49684 36900 ft 489 kts 71°
2026-05-06 08:41 -15.12569 86.63324 36900 ft 491 kts 71°
2026-05-06 08:42 -15.08984 86.76995 36901 ft 491 kts 71°
2026-05-06 08:42 -15.05405 86.90612 36901 ft 491 kts 70°
2026-05-06 08:43 -15.01799 87.04297 36898 ft 492 kts 70°
2026-05-06 08:43 -14.98182 87.17985 36895 ft 492 kts 70°
2026-05-06 08:44 -14.94563 87.31646 36898 ft 492 kts 70°
2026-05-06 08:44 -14.90933 87.45310 36892 ft 491 kts 70°
2026-05-06 08:45 -14.87315 87.58897 36895 ft 488 kts 70°
2026-05-06 08:45 -14.83694 87.72463 36893 ft 488 kts 70°
2026-05-06 08:46 -14.80067 87.86014 36891 ft 488 kts 70°
2026-05-06 08:46 -14.76435 87.99552 36894 ft 488 kts 70°
2026-05-06 08:47 -14.72785 88.13111 36894 ft 490 kts 71°
2026-05-06 08:47 -14.69120 88.26708 36895 ft 491 kts 71°
2026-05-06 08:48 -14.65441 88.40322 36893 ft 491 kts 71°
2026-05-06 08:48 -14.61748 88.53963 36891 ft 492 kts 70°
2026-05-06 08:49 -14.58061 88.67523 36892 ft 492 kts 70°
2026-05-06 08:49 -14.54338 88.81192 36892 ft 492 kts 70°
2026-05-06 08:50 -14.50621 88.94808 36894 ft 492 kts 70°
2026-05-06 08:50 -14.46894 89.08424 36886 ft 492 kts 70°
2026-05-06 08:51 -14.43149 89.22075 36885 ft 492 kts 70°
2026-05-06 08:51 -14.39395 89.35715 36887 ft 494 kts 70°
2026-05-06 08:52 -14.35635 89.49365 36884 ft 494 kts 70°
2026-05-06 08:52 -14.31866 89.63004 36884 ft 493 kts 70°
2026-05-06 08:53 -14.28115 89.76545 36883 ft 493 kts 70°
2026-05-06 08:53 -14.24329 89.90179 36880 ft 493 kts 70°
2026-05-06 08:54 -14.20541 90.03800 36872 ft 495 kts 70°
2026-05-06 08:54 -14.16715 90.17507 36875 ft 496 kts 70°
2026-05-06 08:55 -14.12883 90.31207 36879 ft 496 kts 70°
2026-05-06 08:55 -14.09041 90.44898 36880 ft 496 kts 70°
2026-05-06 08:56 -14.05167 90.58701 36875 ft 496 kts 70°
2026-05-06 08:56 -14.01325 90.72345 36876 ft 496 kts 70°
2026-05-06 08:57 -13.97454 90.86061 36877 ft 495 kts 70°
2026-05-06 08:57 -13.93596 90.99696 36875 ft 495 kts 70°
2026-05-06 08:58 -13.89706 91.13415 36874 ft 495 kts 70°
2026-05-06 08:58 -13.85795 91.27177 36877 ft 498 kts 70°
2026-05-06 08:59 -13.81896 91.40866 36877 ft 496 kts 70°
2026-05-06 08:59 -13.78090 91.54174 36873 ft 496 kts 70°
2026-05-06 09:00 -13.74151 91.67928 36874 ft 496 kts 70°
2026-05-06 09:00 -13.70234 91.81575 36876 ft 496 kts 70°
2026-05-06 09:01 -13.66300 91.95249 36874 ft 495 kts 70°
2026-05-06 09:01 -13.62372 92.08876 36873 ft 495 kts 70°
2026-05-06 09:02 -13.58438 92.22493 36874 ft 495 kts 70°
2026-05-06 09:02 -13.54516 92.36033 36873 ft 494 kts 70°
2026-05-06 09:03 -13.50578 92.49608 36874 ft 494 kts 70°
2026-05-06 09:03 -13.46592 92.63311 36870 ft 494 kts 70°
2026-05-06 09:04 -13.42300 92.78046 36871 ft 490 kts 70°
2026-05-06 09:04 -13.38328 92.91635 36873 ft 490 kts 70°
2026-05-06 09:05 -13.34385 93.05103 36873 ft 490 kts 70°
2026-05-06 09:05 -13.30446 93.18523 36871 ft 489 kts 70°
2026-05-06 09:06 -13.26502 93.31937 36873 ft 489 kts 70°
2026-05-06 09:06 -13.22556 93.45329 36873 ft 489 kts 70°
2026-05-06 09:07 -13.18596 93.58741 36871 ft 489 kts 70°
2026-05-06 09:07 -13.14613 93.72203 36868 ft 489 kts 70°
2026-05-06 09:08 -13.10618 93.85678 36868 ft 493 kts 70°
2026-05-06 09:08 -13.06510 93.99498 36868 ft 494 kts 70°
2026-05-06 09:09 -13.02350 94.13476 36865 ft 495 kts 70°
2026-05-06 09:09 -12.98317 94.26990 36864 ft 491 kts 70°
2026-05-06 09:10 -12.94308 94.40402 36865 ft 491 kts 70°
2026-05-06 09:10 -12.90245 94.53962 36865 ft 491 kts 70°
2026-05-06 09:11 -12.86137 94.67647 36861 ft 491 kts 70°
2026-05-06 09:11 -12.82093 94.81088 36862 ft 491 kts 70°
2026-05-06 09:12 -12.78046 94.94516 36862 ft 491 kts 70°
2026-05-06 09:12 -12.74014 95.07857 36863 ft 492 kts 70°
2026-05-06 09:13 -12.69958 95.21264 36861 ft 492 kts 70°
2026-05-06 09:13 -12.65870 95.34748 36863 ft 492 kts 70°
2026-05-06 09:14 -12.61703 95.48462 36860 ft 493 kts 70°
2026-05-06 09:14 -12.57595 95.61956 36860 ft 493 kts 70°
2026-05-06 09:15 -12.53408 95.75684 36858 ft 494 kts 70°
2026-05-06 09:15 -12.49988 95.86874 36860 ft 494 kts 70°
2026-05-06 09:16 -12.45870 96.00326 36858 ft 494 kts 70°
2026-05-06 09:16 -12.41731 96.13820 36857 ft 495 kts 70°
2026-05-06 09:17 -12.37543 96.27447 36858 ft 495 kts 70°
2026-05-06 09:17 -12.33399 96.40908 36857 ft 495 kts 70°
2026-05-06 09:18 -12.29235 96.54409 36857 ft 495 kts 70°
2026-05-06 09:18 -12.25014 96.68064 36850 ft 495 kts 70°
2026-05-06 09:19 -12.20846 96.81548 36846 ft 495 kts 71°
2026-05-06 09:19 -12.17859 96.95276 36851 ft 497 kts 77°
2026-05-06 09:20 -12.15178 97.09249 36850 ft 497 kts 77°
2026-05-06 09:20 -12.12495 97.23082 36852 ft 497 kts 76°